Regional Weather Roundup
Issued by NWS

Home | Current Version | Previous Version | Graphics & Text | Print | Product List | Glossary On
Versions: 1 2 3 4 5 6 7 8 9 10 11 12 13 14 15 16 17 18 19 20 21 22 23 24 25 26 27 28 29 30 31 32 33 34 35 36 37 38 39 40 41 42 43 44 45 46 47 48 49 50
000
ASUS43 KIND 040659
RWRIN

WEATHER ROUNDUP FOR INDIANA
NATIONAL WEATHER SERVICE INDIANAPOLIS IN
300 AM EDT WED MAY 04 2016

NOTE: "FAIR" INDICATES FEW OR NO CLOUDS BELOW 12,000 FEET WITH NO
SIGNIFICANT WEATHER AND/OR OBSTRUCTIONS TO VISIBILITY.

* - STATION DOES NOT REPORT WEATHER SUCH AS PRECIPITATION OR FOG.

+ - STATION NOT QUALITY CONTROLLED BY THE NATIONAL WEATHER SERVICE.
    USE DATA WITH CAUTION...ESPECIALLY DEWPOINT AND RELATIVE
    HUMIDITY OBSERVATIONS.

INZ001>003-010>013-019-020-040800-
NORTHWEST INDIANA

CITY           SKY/WX    TMP DP  RH WIND       PRES   REMARKS
RENSSELAER +   CLOUDY    54  45  71 SW10      29.69F

$$

LMZ046-743>745-040800-
SOUTHERN LAKE MICHIGAN

STATION/POSITION TIME  TEMP    WIND        PRES    WAVE
                       AIR SEA DIR/SP/G            HT
                 (UTC) (F)     (DEG/KT/KT) (MB)    (FT)
BURNS HARBOR     0602   59     210/ 16/ 21 1004.7F
MICHIGAN CITY    0600   58     170/ 11/ 17   N/A

$$

INZ004-005-014>016-021>024-040800-
NORTH CENTRAL INDIANA

CITY           SKY/WX    TMP DP  RH WIND       PRES   REMARKS
GOSHEN         LGT RAIN  54  44  69 S13       29.66F
PERU/GRISSOM   PTCLDY    52  46  82 SW10      29.69F
SOUTH BEND     LGT RAIN  54  44  69 S10       29.65F

$$

INZ006>009-017-018-025>027-040800-
NORTHEAST INDIANA

CITY           SKY/WX    TMP DP  RH WIND       PRES   REMARKS
ANGOLA *+      PTCLDY    50  45  81 S5        29.68F
FORT WAYNE     CLOUDY    53  43  68 S13       29.71F

$$

INZ028-029-035-036-043>045-051>053-040800-
WEST CENTRAL INDIANA

CITY           SKY/WX    TMP DP  RH WIND       PRES   REMARKS
CRAWFORDSVL +  CLOUDY    50  46  85 SW9       29.74F
GREENCASTLE +  CLOUDY    50  46  87 SW5       29.77F
LAFAYETTE      CLOUDY    53  45  74 SW8       29.72F
TERRE HAUTE    CLEAR     52  44  74 SW8       29.78F

$$

INZ030>032-037>040-046>048-054>057-064-065-040800-
CENTRAL INDIANA

CITY           SKY/WX    TMP DP  RH WIND       PRES   REMARKS
INDIANAPOLIS   CLOUDY    52  44  74 SW8       29.75F
-EAGLE CREEK   MOCLDY    53  45  74 SW6       29.75F
KOKOMO *+      CLOUDY    54  43  66 SW10      29.71F
SHELBYVILLE    CLOUDY    53  47  79 S8        29.77F

$$

INZ033-034-041-042-049-050-058-059-040800-
EAST CENTRAL INDIANA

CITY           SKY/WX    TMP DP  RH WIND       PRES   REMARKS
MUNCIE         CLOUDY    55  44  66 SW8       29.74F

$$

INZ060-061-067>069-081>083-085>088-040800-
SOUTHWEST INDIANA

CITY           SKY/WX    TMP DP  RH WIND       PRES   REMARKS
EVANSVILLE     CLEAR     50  43  77 SW5       29.85F
HUNTINGBURG *+ CLOUDY    50  43  76 SW5       29.84F

$$

INZ062-063-066-070>080-084-089>092-040800-
SOUTH CENTRAL AND SOUTHEAST INDIANA

CITY           SKY/WX    TMP DP  RH WIND       PRES   REMARKS
BLOOMINGTON    MOCLDY    51  45  79 SW8       29.79F
MADISON *+     CLOUDY    50  46  87 SW5       29.83F
SEYMOUR +      CLOUDY    54  48  82 CALM      29.80F

$$





USA.gov is the U.S. government's official web portal to all federal, state and local government web resources and services.